| time (UTC) | temp C | wind direction | speed KPH | gust KPH | rain 1hr cm | rain 24hr cm | rain mn cm | humidity % | barometer mb |
| 20260504214017 | 20 | 225 | 16.1 | 30.6 | 0.00 | 0.00 | 0.00 | 41 | 1009.5 |
| 20260504213034 | 20 | 158 | 20.9 | 35.4 | 0.00 | 0.00 | 0.00 | 41 | 1009.6 |
| 20260504212017 | 20 | 225 | 14.5 | 25.7 | 0.00 | 0.00 | 0.00 | 41 | 1009.7 |
| 20260504211017 | 20 | 248 | 16.1 | 27.4 | 0.00 | 0.00 | 0.00 | 41 | 1009.6 |
| 20260504210120 | 20 | 248 | 17.7 | 32.2 | 0.00 | 0.00 | 0.00 | 42 | 1009.7 |
| 20260504205027 | 20 | 248 | 17.7 | 32.2 | 0.00 | 0.00 | 0.00 | 41 | 1009.7 |
| 20260504204017 | 20 | 248 | 16.1 | 29.0 | 0.00 | 0.00 | 0.00 | 41 | 1009.9 |
| 20260504203017 | 20 | 225 | 20.9 | 38.6 | 0.00 | 0.00 | 0.00 | 41 | 1009.7 |
| 20260504202017 | 20 | 270 | 14.5 | 29.0 | 0.00 | 0.00 | 0.00 | 41 | 1009.9 |
| 20260504201017 | 20 | 225 | 19.3 | 30.6 | 0.00 | 0.00 | 0.00 | 42 | 1010.1 |
| 20260504200115 | 20 | 180 | 19.3 | 37.0 | 0.00 | 0.00 | 0.00 | 41 | 1010.2 |
| 20260504195017 | 19 | 225 | 24.1 | 40.2 | 0.00 | 0.00 | 0.00 | 42 | 1010.2 |
| 20260504194016 | 19 | 225 | 22.5 | 35.4 | 0.00 | 0.00 | 0.00 | 41 | 1010.4 |
| 20260504193047 | 19 | 225 | 22.5 | 35.4 | 0.00 | 0.00 | 0.00 | 42 | 1010.5 |
| 20260504192037 | 19 | 225 | 12.9 | 27.4 | 0.00 | 0.00 | 0.00 | 43 | 1010.7 |
| 20260504191017 | 20 | 180 | 16.1 | 30.6 | 0.00 | 0.00 | 0.00 | 42 | 1010.8 |
| 20260504190017 | 19 | 225 | 14.5 | 27.4 | 0.00 | 0.00 | 0.00 | 42 | 1010.8 |
| 20260504185022 | 19 | 180 | 14.5 | 25.7 | 0.00 | 0.00 | 0.00 | 42 | 1011.1 |
| 20260504184022 | 18 | 248 | 16.1 | 30.6 | 0.00 | 0.00 | 0.00 | 42 | 1011.0 |
| 20260504183017 | 18 | 248 | 17.7 | 29.0 | 0.00 | 0.00 | 0.00 | 43 | 1011.3 |
| 20260504182017 | 18 | 158 | 11.3 | 25.7 | 0.00 | 0.00 | 0.00 | 45 | 1011.4 |
| 20260504181016 | 18 | 225 | 14.5 | 29.0 | 0.00 | 0.00 | 0.00 | 45 | 1011.5 |
| 20260504180032 | 18 | 158 | 17.7 | 32.2 | 0.00 | 0.00 | 0.00 | 44 | 1011.6 |
| 20260504175017 | 17 | 180 | 14.5 | 22.5 | 0.00 | 0.00 | 0.00 | 45 | 1011.6 |
| 20260504174016 | 17 | 225 | 16.1 | 27.4 | 0.00 | 0.00 | 0.00 | 44 | 1011.9 |
| 20260504173027 | 17 | 180 | 17.7 | 30.6 | 0.00 | 0.00 | 0.00 | 44 | 1011.9 |
| 20260504172026 | 17 | 225 | 14.5 | 33.8 | 0.00 | 0.00 | 0.00 | 45 | 1012.2 |
| 20260504171021 | 17 | 180 | 17.7 | 32.2 | 0.00 | 0.00 | 0.00 | 45 | 1012.4 |
| 20260504151036 | 14 | 225 | 16.1 | 27.4 | 0.00 | 0.00 | 0.00 | 46 | 1013.6 |
| 20260504141022 | 13 | 180 | 8.0 | 12.9 | 0.00 | 0.00 | 0.00 | 53 | 1013.8 |
| 20260504120141 | -17 | 0.0 | 0.0 | 0.00 | 0.00 | 0.00 | |||
| 20260504110516 | -17 | 0.0 | 0.0 | 0.00 | 0.00 | 0.00 | |||
| 20260504100521 | -17 | 0.0 | 0.0 | 0.00 | 0.00 | 0.00 | |||
| 20260504081016 | 8 | 225 | 17.7 | 25.7 | 0.00 | 0.00 | 0.00 | 55 | 1014.1 |
| 20260504050015 | 10 | 248 | 24.1 | 29.0 | 0.00 | 0.00 | 0.00 | 51 | 1014.3 |
| 20260504045015 | 10 | 248 | 25.7 | 33.8 | 0.00 | 0.00 | 0.00 | 50 | 1014.2 |
| 20260504044015 | 10 | 248 | 22.5 | 29.0 | 0.00 | 0.00 | 0.00 | 50 | 1014.2 |
| 20260504043016 | 10 | 248 | 20.9 | 29.0 | 0.00 | 0.00 | 0.00 | 50 | 1014.3 |
| 20260504042016 | 10 | 248 | 22.5 | 30.6 | 0.00 | 0.00 | 0.00 | 49 | 1014.2 |
| 20260504041035 | 10 | 225 | 20.9 | 27.4 | 0.00 | 0.00 | 0.00 | 50 | 1014.1 |
| 20260504040035 | 10 | 248 | 20.9 | 30.6 | 0.00 | 0.00 | 0.00 | 50 | 1014.0 |
| 20260504035017 | 10 | 248 | 22.5 | 29.0 | 0.00 | 0.00 | 0.00 | 49 | 1014.0 |
| 20260504034017 | 10 | 248 | 19.3 | 25.7 | 0.00 | 0.00 | 0.00 | 48 | 1013.9 |
| 20260504033037 | 10 | 248 | 20.9 | 29.0 | 0.00 | 0.00 | 0.00 | 48 | 1013.8 |
| 20260504032017 | 11 | 248 | 24.1 | 32.2 | 0.00 | 0.00 | 0.00 | 47 | 1013.7 |
| 20260504031017 | 11 | 248 | 24.1 | 30.6 | 0.00 | 0.00 | 0.00 | 47 | 1013.7 |
| 20260504030017 | 11 | 248 | 24.1 | 30.6 | 0.00 | 0.00 | 0.00 | 46 | 1013.7 |
| 20260504025037 | 11 | 248 | 24.1 | 27.4 | 0.00 | 0.00 | 0.00 | 45 | 1013.7 |
| 20260504024017 | 11 | 248 | 24.1 | 30.6 | 0.00 | 0.00 | 0.00 | 44 | 1013.8 |
| 20260504023017 | 11 | 248 | 25.7 | 32.2 | 0.00 | 0.00 | 0.00 | 44 | 1013.6 |
| 20260504022017 | 11 | 248 | 25.7 | 30.6 | 0.00 | 0.00 | 0.00 | 45 | 1013.8 |
| 20260504021017 | 11 | 270 | 25.7 | 30.6 | 0.00 | 0.00 | 0.00 | 45 | 1013.8 |
| 20260504020017 | 11 | 270 | 22.5 | 27.4 | 0.00 | 0.00 | 0.00 | 45 | 1013.8 |
| 20260504015017 | 11 | 270 | 25.7 | 30.6 | 0.00 | 0.00 | 0.00 | 44 | 1013.7 |
| 20260504014022 | 11 | 270 | 27.4 | 33.8 | 0.00 | 0.00 | 0.00 | 44 | 1013.6 |
| 20260504013017 | 11 | 270 | 27.4 | 33.8 | 0.00 | 0.00 | 0.00 | 44 | 1013.6 |
| 20260504012017 | 11 | 270 | 25.7 | 30.6 | 0.00 | 0.00 | 0.00 | 44 | 1013.6 |
| 20260504011017 | 11 | 270 | 27.4 | 33.8 | 0.00 | 0.00 | 0.00 | 44 | 1013.4 |
| 20260504010017 | 11 | 270 | 32.2 | 40.2 | 0.00 | 0.00 | 0.00 | 43 | 1013.2 |
| 20260504005017 | 11 | 270 | 30.6 | 40.2 | 0.00 | 0.00 | 0.00 | 44 | 1013.1 |
| 20260504004017 | 12 | 270 | 30.6 | 38.6 | 0.00 | 0.00 | 0.00 | 43 | 1013.1 |
| 20260504003024 | 12 | 270 | 29.0 | 37.0 | 0.00 | 0.00 | 0.00 | 44 | 1013.0 |
| 20260504002042 | 12 | 270 | 27.4 | 32.2 | 0.00 | 0.00 | 0.00 | 43 | 1012.9 |
| 20260504001017 | 12 | 270 | 27.4 | 37.0 | 0.00 | 0.00 | 0.00 | 43 | 1012.7 |
| 20260504000024 | 12 | 270 | 29.0 | 37.0 | 0.00 | 0.00 | 0.00 | 43 | 1012.6 |
| 20260503235017 | 12 | 270 | 32.2 | 43.5 | 0.00 | 0.00 | 0.00 | 42 | 1012.5 |
| 20260503234017 | 12 | 270 | 32.2 | 40.2 | 0.00 | 0.00 | 0.00 | 42 | 1012.5 |
| 20260503233025 | 12 | 270 | 30.6 | 38.6 | 0.00 | 0.00 | 0.00 | 41 | 1012.5 |
| 20260503232017 | 12 | 270 | 35.4 | 46.7 | 0.00 | 0.00 | 0.00 | 41 | 1012.5 |
| 20260503231017 | 12 | 270 | 27.4 | 43.5 | 0.00 | 0.00 | 0.00 | 40 | 1012.5 |
| 20260503230042 | 12 | 293 | 33.8 | 49.9 | 0.00 | 0.00 | 0.00 | 41 | 1012.3 |
| 20260503225017 | 12 | 293 | 37.0 | 53.1 | 0.00 | 0.00 | 0.00 | 40 | 1012.2 |
| 20260503224022 | 12 | 270 | 32.2 | 41.8 | 0.00 | 0.00 | 0.00 | 40 | 1012.3 |
| 20260503223059 | 12 | 270 | 33.8 | 46.7 | 0.00 | 0.00 | 0.00 | 39 | 1012.2 |
| 20260503222017 | 13 | 270 | 32.2 | 45.1 | 0.00 | 0.00 | 0.00 | 40 | 1012.1 |
| 20260503221016 | 12 | 270 | 33.8 | 43.5 | 0.00 | 0.00 | 0.00 | 40 | 1012.2 |
| 20260503220036 | 13 | 293 | 35.4 | 49.9 | 0.00 | 0.00 | 0.00 | 39 | 1012.3 |
| 20260503215042 | 12 | 270 | 37.0 | 54.7 | 0.00 | 0.00 | 0.00 | 39 | 1012.2 |